Погода в Киркуке

Ирак     35°26′55″N   44°22′49″E
темп.,
°C
ветер,
м/с
пор.,
м/с
влажн.,
%
обл.,
%
осадки,
мм/ч
давл.,
гПа
погр.,
м
12 мая, ср
ср1200:00+24ююз122335 0.0 100812
03:00+22всв22253 0.0 100711
06:00+23в33276 0.0 100934
09:00+31ююз12165 0.0 1009870
12:00+34юз231390 0.0 10083202
15:00+35з351038 0.0 10074344
18:00+33сз341344 0.0 100695
21:00+28с22195 0.1 100714
13 мая, чт
чт1300:00+28всв44163 0.0 100725
03:00+26всв331724 0.0 100722
06:00+26всв44190 0.0 100847
09:00+34св22120 0.0 10081200
12:00+36ссз11105 0.0 10074650
15:00+37сз43962 0.0 10054754
18:00+35сз57105 0.0 1004267
21:00+30св510144 0.0 1006165
14 мая, пт
пт1400:00+29всв814174 0.0 1006311
03:00+26св610247 0.0 1006150
06:00+25всв69290 0.0 1007129
09:00+33св33174 0.0 1007797
12:00+37с43106 0.0 10064604
15:00+37сз74101 0.0 10044429
18:00+30св8112521 0.0 1005313
21:00+27св56274 0.0 100678
15 мая, сб
сб1500:00+26всв58270 0.0 1006107
03:00+25св56290 0.0 100568
06:00+24св34310 0.0 100671
09:00+32св66160 0.0 1006845
12:00+36ссв44120 0.0 10053836
15:00+36ссв65125 0.0 10044146
18:00+34ссв69150 0.0 1003602
21:00+29св58213 0.0 100494
16 мая, вс
вс1600:00+27с33231 0.0 100420
03:00+26св33260 0.0 100423
06:00+26всв44240 0.0 100550
09:00+34вюв43160 0.0 1004830
12:00+36юз53121 0.0 10043804
15:00+37зюз6490 0.0 10034066
18:00+34з71070 0.0 1003582
21:00+28зсз33120 0.0 100513